FW6649 Weather Reports


Display with metric or nautical units.
time (UTC)temp
F
wind
direction
speed
MPH
gust
MPH
rain 1hr
in
rain 24hr
in
rain mn
in
humidity
%
barometer
mb
20260505061533 61 180 3.0 7.0 0.00 0.00 0.00 56 1013.6
20260505060053 61 163 3.0 5.0 0.00 0.00 0.00 54 1013.7
20260505054532 61 138 3.0 6.0 0.00 0.00 0.00 53 1013.6
20260505053037 62 179 3.0 7.0 0.00 0.00 0.00 52 1013.5
20260505051534 62 141 4.0 12.0 0.00 0.00 0.00 51 1013.7
20260505041549 64 161 3.0 9.0 0.00 0.00 0.00 47 1013.5
20260505040036 64 164 5.0 10.0 0.00 0.00 0.00 46 1013.4
20260505034534 65 167 5.0 9.0 0.00 0.00 0.00 45 1013.4
20260505033038 65 150 4.0 11.0 0.00 0.00 0.00 45 1013.3
20260505031539 66 146 5.0 11.0 0.00 0.00 0.00 44 1013.3
20260505030046 67 133 3.0 10.0 0.00 0.00 0.00 42 1013.2
20260505024535 68 158 3.0 7.0 0.00 0.00 0.00 42 1013.2
20260505023034 68 169 3.0 7.0 0.00 0.00 0.00 42 1013.2
20260505021536 68 155 3.0 9.0 0.00 0.00 0.00 43 1013.2
20260505020041 68 174 2.0 7.0 0.00 0.00 0.00 45 1013.3
20260505014559 69 140 3.0 10.0 0.00 0.00 0.00 45 1013.2
20260505013047 69 174 3.0 7.0 0.00 0.00 0.00 46 1013.0
20260505011540 69 155 3.0 9.0 0.00 0.00 0.00 45 1012.7
20260505010043 70 157 3.0 7.0 0.00 0.00 0.00 45 1012.6
20260505004547 70 136 3.0 7.0 0.00 0.00 0.00 45 1012.5
20260505003053 71 132 4.0 7.0 0.00 0.00 0.00 44 1012.5
20260505001541 72 166 3.0 6.0 0.00 0.00 0.00 43 1012.5
20260505000037 73 135 2.0 5.0 0.00 0.00 0.00 43 1012.4
20260504234536 74 137 2.0 6.0 0.00 0.00 0.00 41 1012.2
20260504233036 75 224 3.0 7.0 0.00 0.00 0.00 40 1012.1
20260504231533 76 186 4.0 12.0 0.00 0.00 0.00 39 1012.0
20260504230038 76 172 5.0 11.0 0.00 0.00 0.00 40 1011.9
20260504224537 75 148 2.0 7.0 0.00 0.00 0.00 40 1011.9
20260504223055 75 214 3.0 11.0 0.00 0.00 0.00 40 1012.0
20260504221535 76 213 5.0 14.0 0.00 0.00 0.00 39 1012.0
20260504220035 77 215 4.0 12.0 0.00 0.00 0.00 39 1012.1
20260504214534 78 234 7.0 13.0 0.00 0.00 0.00 37 1012.1
20260504213038 78 205 5.0 16.0 0.00 0.00 0.00 37 1012.1
20260504211603 77 205 4.0 13.0 0.00 0.00 0.00 38 1012.2
20260504210043 77 200 6.0 14.0 0.00 0.00 0.00 38 1012.1
20260504204534 77 180 8.0 14.0 0.00 0.00 0.00 37 1012.0
20260504203033 77 151 8.0 13.0 0.00 0.00 0.00 36 1012.4
20260504201539 77 139 8.0 12.0 0.00 0.00 0.00 37 1012.5
20260504200038 77 198 6.0 12.0 0.00 0.00 0.00 36 1012.6
20260504194544 77 194 4.0 11.0 0.00 0.00 0.00 36 1012.9
20260504193036 76 215 5.0 10.0 0.00 0.00 0.00 36 1013.2
20260504191536 76 217 8.0 14.0 0.00 0.00 0.00 36 1013.5
20260504190043 76 190 6.0 11.0 0.00 0.00 0.00 36 1013.7
20260504184545 76 188 7.0 12.0 0.00 0.00 0.00 36 1013.7
20260504183038 74 183 5.0 13.0 0.00 0.00 0.00 37 1013.9
20260504181538 74 222 7.0 13.0 0.00 0.00 0.00 37 1014.0
20260504180038 74 218 6.0 13.0 0.00 0.00 0.00 36 1014.0
20260504174537 73 215 4.0 13.0 0.00 0.00 0.00 37 1014.0
20260504173034 73 302 4.0 11.0 0.00 0.00 0.00 37 1014.1
20260504171540 73 221 5.0 12.0 0.00 0.00 0.00 36 1014.4
20260504081534 46 0 0.0 0.0 0.00 0.00 0.00 72 1015.9